Погода в Тинаду

Мальдивы     0°32′04″N   72°59′50″E
темп.,
°C
ветер,
м/с
пор.,
м/с
влажн.,
%
обл.,
%
осадки,
мм/ч
давл.,
гПа
погр.,
м
29 июня, ср
ср2923:00+29з337188 0.0 1010836
02:00+28юз3377100 0.4 1009523
05:00+28ююз337599 0.5 1009670
08:00+28ю337362 0.1 1011756
11:00+29ю22715 0.1 1010783
14:00+29ююз2270100 0.0 1008854
17:00+29ю1169100 0.0 1008718
20:00+29ю22705 0.0 1009782
30 июня, чт
чт3023:00+29ююв2271100 0.1 1010591
02:00+28ю22755 0.7 1008209
05:00+28юз11745 1.7 1008364
08:00+28ююз22714 0.0 1009651
11:00+28зюз11705 0.3 1010587
14:00+28зюз226916 0.1 1008744
17:00+29зюз226999 0.1 1008844
20:00+28юз227093 0.3 1010546
1 июля, пт
пт123:00+28юз226999 0.6 1010784
02:00+28юз227175 0.5 1008632
05:00+28юз227335 1.3 1008350
08:00+27юз2275100 2.4 1010277
11:00+28юз2372100 2.4 1010705
14:00+28юз227062 0.0 1008854
17:00+28зюз226958 0.0 1008864
20:00+27зюз2276100 2.8 1010161
2 июля, сб
сб223:00+27зюз337440 5.1 1010354
02:00+28з447257 1.3 1008668
05:00+27зсз457627 2.8 1008595
08:00+27сз677823 2.1 1010773
11:00+27сз9983100 6.9 1010834
14:00+25зсз121489100 25.8 1008939
17:00+26сз101385100 34.2 1008991
20:00+27сз111380100 1.0 10091058
3 июля, вс
вс323:00+28зсз111377100 1.4 10101181
02:00+27зсз111580100 2.4 10081267
05:00+28зсз91272100 3.2 10081309
08:00+28сз91173100 0.0 10091059
11:00+29сз91171100 0.0 10091142
14:00+29сз91172100 0.1 10071302
17:00+28сз101178100 3.5 1007984
20:00+27сз111283100 3.8 1009862